Language: 


Des rapports , des résumés tant et plus, au choix de chacun....


Données statistiques de la station
Quotidien Rapport Juin 14, 2017 Unités:  Anglais    Métrique   les deux
« Précédent Jour
Suivant Jour »
Quotidien Hebdomadaire Mensuel Annuel Actuel
  Haut: Bas: Moyen:
Température: 86.4 °F 32 °F 70.5 °F
Pt de rosée: 59 °F 48.2 °F 54 °F
Humidité: 93 % 0 % 59 %
Vitesse du vent: 9.8 mph 0 mph 2.4 mph
Rafales: 10.5 mph - -
Vent:- - ESE
Pression: 30.1 in 0 in -
Précipitation: 0 in    
Historical Graphs
 
 
Données statistiques pour Juin 14, 2017
Heure Température Point de rosée Pression Vent Vitesse du vent Refales Humidité Pluie (taux horaire)
00:00 58.6 °F 50 °F 30.1 in Calm   3.4 mph 71 % 0 in
00:05 58.5 °F 50 °F 30.1 in NNE 1.6 mph 2.9 mph 71 % 0 in
00:09 58.3 °F 50 °F 30.1 in Calm   2.9 mph 71 % 0 in
00:14 58.1 °F 50 °F 30.1 in NNE 3.1 mph 3.8 mph 73 % 0 in
00:19 58.1 °F 50 °F 30.1 in North 1.3 mph 3.8 mph 73 % 0 in
00:24 57.9 °F 50 °F 30.1 in Calm   3.1 mph 73 % 0 in
00:29 57.9 °F 50 °F 30.1 in Calm   2 mph 73 % 0 in
00:34 57.7 °F 50 °F 30.1 in Calm   2 mph 73 % 0 in
00:39 57.6 °F 50 °F 30.1 in Calm   3.4 mph 73 % 0 in
00:44 57.4 °F 50 °F 30.1 in North 2.5 mph 3.4 mph 74 % 0 in
00:49 57.2 °F 48.2 °F 30.1 in Calm   2.7 mph 73 % 0 in
00:54 57 °F 50 °F 30.1 in North 2.5 mph 2.5 mph 74 % 0 in
00:59 57 °F 50 °F 30.1 in Calm   3.6 mph 74 % 0 in
01:04 56.8 °F 50 °F 30.1 in Calm   3.6 mph 75 % 0 in
01:09 56.8 °F 50 °F 30.1 in Calm   2.5 mph 75 % 0 in
01:14 56.5 °F 50 °F 30.1 in Calm   2.5 mph 75 % 0 in
01:19 56.3 °F 50 °F 30.1 in Calm     75 % 0 in
01:24 56.3 °F 50 °F 30.1 in Calm     75 % 0 in
01:29 56.3 °F 50 °F 30.1 in North 2.5 mph 3.8 mph 76 % 0 in
01:34 56.3 °F 50 °F 30.1 in North 0.9 mph 3.8 mph 77 % 0 in
01:39 56.3 °F 50 °F 30.1 in NE 3.8 mph 3.8 mph 78 % 0 in
01:44 56.1 °F 50 °F 30.1 in Calm   4.9 mph 77 % 0 in
01:49 55.9 °F 50 °F 30.1 in NNE 3.1 mph 4.9 mph 77 % 0 in
01:54 55.9 °F 50 °F 30.1 in Calm   4 mph 78 % 0 in
01:59 55.8 °F 50 °F 30.1 in Calm   4 mph 79 % 0 in
02:04 55.8 °F 50 °F 30.1 in Calm   3.1 mph 79 % 0 in
02:09 55.6 °F 50 °F 30.1 in Calm   4 mph 79 % 0 in
02:14 55.6 °F 50 °F 30.1 in NE 2.5 mph 4 mph 80 % 0 in
02:19 55.6 °F 50 °F 30.1 in Calm   4 mph 80 % 0 in
02:24 55.4 °F 50 °F 30.1 in NNE 0.9 mph 4 mph 80 % 0 in
02:30 55.2 °F 50 °F 30.1 in Calm   4 mph 81 % 0 in
02:35 55 °F 50 °F 30.1 in Calm   2.9 mph 80 % 0 in
02:40 54.9 °F 50 °F 30.1 in Calm   2.9 mph 80 % 0 in
02:45 54.7 °F 50 °F 30.1 in Calm   2 mph 80 % 0 in
02:50 54.5 °F 50 °F 30.1 in Calm   0.9 mph 81 % 0 in
02:55 54.3 °F 48.2 °F 30.1 in Calm   0.9 mph 81 % 0 in
03:00 54.1 °F 48.2 °F 30.1 in Calm     81 % 0 in
03:05 54 °F 48.2 °F 30.1 in Calm   0.9 mph 82 % 0 in
03:10 53.8 °F 48.2 °F 30.1 in Calm     82 % 0 in
03:15 53.8 °F 48.2 °F 30.1 in NNE 2.5 mph 3.4 mph 82 % 0 in
03:20 53.8 °F 48.2 °F 30.1 in Calm   3.4 mph 83 % 0 in
03:25 54 °F 50 °F 30.1 in Calm   3.6 mph 84 % 0 in
03:30 54 °F 50 °F 30.1 in Calm   3.8 mph 85 % 0 in
03:35 54 °F 50 °F 30.1 in Calm   3.8 mph 85 % 0 in
03:40 53.8 °F 50 °F 30.1 in NE 4.3 mph 4.3 mph 85 % 0 in
03:45 53.6 °F 50 °F 30.1 in NE 2 mph 5.6 mph 85 % 0 in
03:50 53.6 °F 50 °F 30.1 in NNW 2.9 mph 5.6 mph 85 % 0 in
03:55 53.4 °F 50 °F 30.1 in NNE 3.4 mph 4.3 mph 86 % 0 in
04:00 53.6 °F 50 °F 30.1 in Calm   4.3 mph 86 % 0 in
04:05 53.6 °F 50 °F 30.1 in North 3.6 mph 4.3 mph 87 % 0 in
04:08 53.6 °F 50 °F 30.1 in Calm   4.3 mph 87 % 0 in
04:13 53.6 °F 50 °F 30.1 in Calm   4.3 mph 88 % 0 in
04:18 53.6 °F 50 °F 30.1 in Calm   4.3 mph 87 % 0 in
04:23 53.4 °F 50 °F 30.1 in Calm   4.3 mph 87 % 0 in
04:28 53.4 °F 50 °F 30.1 in Calm   2.9 mph 86 % 0 in
04:33 53.2 °F 48.2 °F 30.1 in North 3.1 mph 3.6 mph 86 % 0 in
04:38 53.2 °F 50 °F 30.1 in Calm   3.6 mph 88 % 0 in
04:43 53.2 °F 50 °F 30.1 in NE 3.8 mph 3.8 mph 88 % 0 in
04:48 53.2 °F 50 °F 30.1 in Calm   3.8 mph 88 % 0 in
04:53 53.2 °F 50 °F 30.1 in Calm   2.9 mph 88 % 0 in
04:58 53.2 °F 50 °F 30.1 in North 3.8 mph 3.8 mph 88 % 0 in
05:03 53.1 °F 50 °F 30.1 in NE 3.4 mph 3.8 mph 88 % 0 in
05:08 53.1 °F 50 °F 30.1 in North 4 mph 4 mph 90 % 0 in
05:13 53.1 °F 50 °F 30.1 in NNE 3.6 mph 4.3 mph 90 % 0 in
05:18 52.9 °F 50 °F 30.1 in NNE 2.7 mph 4.7 mph 90 % 0 in
05:23 52.9 °F 50 °F 30.1 in Calm   4.7 mph 91 % 0 in
05:28 52.7 °F 50 °F 30.1 in Calm   3.6 mph 90 % 0 in
05:33 52.5 °F 50 °F 30.1 in Calm   2.9 mph 89 % 0 in
05:38 52.5 °F 50 °F 30.1 in Calm   2.9 mph 89 % 0 in
05:44 52.3 °F 50 °F 30.1 in Calm   2.9 mph 90 % 0 in
05:49 52.3 °F 50 °F 30.1 in NNE 2.7 mph 3.1 mph 90 % 0 in
05:54 52.5 °F 50 °F 30.1 in Calm   4 mph 91 % 0 in
05:59 52.5 °F 50 °F 30.1 in Calm   4 mph 91 % 0 in
06:04 52.7 °F 50 °F 30.1 in North 4.3 mph 4.3 mph 92 % 0 in
06:09 52.9 °F 50 °F 30.1 in NNE 3.4 mph 4.3 mph 92 % 0 in
06:14 53.2 °F 51.8 °F 30.1 in Calm   4.3 mph 93 % 0 in
06:19 53.6 °F 51.8 °F 30.1 in North 2 mph 4.3 mph 92 % 0 in
06:24 54 °F 51.8 °F 30.1 in North 3.6 mph 3.8 mph 92 % 0 in
06:29 54.3 °F 51.8 °F 30.1 in NNE 2.7 mph 4 mph 92 % 0 in
06:34 54.5 °F 53.6 °F 30.1 in NNE 2.5 mph 4 mph 91 % 0 in
06:39 54.9 °F 53.6 °F 30.1 in Calm   4 mph 91 % 0 in
06:44 55.4 °F 53.6 °F 30.1 in NNE 1.6 mph 4.3 mph 91 % 0 in
06:49 55.8 °F 53.6 °F 30.1 in NE 2.9 mph 4.3 mph 91 % 0 in
06:54 56.1 °F 53.6 °F 30.1 in Calm   5.4 mph 91 % 0 in
06:59 56.7 °F 53.6 °F 30.1 in NE 1.6 mph 5.4 mph 90 % 0 in
07:04 57.2 °F 55.4 °F 30.1 in Calm   3.8 mph 90 % 0 in
07:09 57.9 °F 55.4 °F 30.1 in Calm   3.6 mph 89 % 0 in
07:14 58.5 °F 55.4 °F 30.1 in Calm   3.6 mph 88 % 0 in
07:19 59 °F 55.4 °F 30.1 in NE 2.5 mph 3.6 mph 88 % 0 in
07:24 59.7 °F 55.4 °F 30.1 in NNE 1.3 mph 3.6 mph 87 % 0 in
07:30 60.4 °F 55.4 °F 30.1 in ENE 1.6 mph 4.3 mph 86 % 0 in
07:35 61 °F 57.2 °F 30.1 in NNE 4.3 mph 4.3 mph 85 % 0 in
07:40 61.5 °F 57.2 °F 30.1 in NE 2.7 mph 4.9 mph 84 % 0 in
07:45 62.1 °F 57.2 °F 30.1 in NE 4 mph 4.9 mph 83 % 0 in
07:50 62.6 °F 57.2 °F 30.1 in NE 6.5 mph 6.5 mph 80 % 0 in
07:55 62.8 °F 57.2 °F 30.1 in NE 6 mph 6.5 mph 80 % 0 in
08:00 63.5 °F 57.2 °F 30.1 in NE 2.9 mph 6 mph 78 % 0 in
08:05 64 °F 57.2 °F 30.1 in NE 0.9 mph 6 mph 78 % 0 in
08:10 64.6 °F 57.2 °F 30.1 in NNE 4.9 mph 5.8 mph 76 % 0 in
08:15 65.1 °F 57.2 °F 30.1 in ENE 4.7 mph 6 mph 74 % 0 in
08:20 65.8 °F 57.2 °F 30.1 in NE 4.3 mph 6 mph 74 % 0 in
08:25 66.4 °F 57.2 °F 30.1 in ENE 3.4 mph 5.4 mph 73 % 0 in
08:30 66.9 °F 57.2 °F 30.1 in ENE 5.4 mph 5.4 mph 72 % 0 in
08:35 67.5 °F 57.2 °F 30.1 in ENE 4 mph 5.4 mph 71 % 0 in
08:40 67.8 °F 57.2 °F 30.1 in NE 3.4 mph 5.4 mph 70 % 0 in
08:45 68.5 °F 59 °F 30.1 in ENE 3.1 mph 5.4 mph 70 % 0 in
08:50 68.9 °F 59 °F 30.1 in East 5.6 mph 6.3 mph 68 % 0 in
08:55 69.4 °F 57.2 °F 30.1 in East 4 mph 6.3 mph 67 % 0 in
09:00 70.2 °F 59 °F 30.1 in NE 4.7 mph 5.8 mph 66 % 0 in
09:05 70.7 °F 59 °F 30.1 in Calm   5.6 mph 65 % 0 in
09:10 70.9 °F 59 °F 30.1 in ESE 2.2 mph 6.5 mph 64 % 0 in
09:15 71.2 °F 57.2 °F 30.1 in ENE 3.1 mph 6.5 mph 63 % 0 in
09:20 71.8 °F 57.2 °F 30.1 in Calm   6.5 mph 62 % 0 in
09:25 72.5 °F 59 °F 30.1 in Calm   6.3 mph 62 % 0 in
09:30 72.9 °F 59 °F 30.1 in Calm   4.7 mph 60 % 0 in
09:35 73.4 °F 59 °F 30.1 in ESE 1.6 mph 4.7 mph 60 % 0 in
09:40 73.9 °F 59 °F 30.1 in SSE 2.7 mph 5.8 mph 59 % 0 in
09:45 74.3 °F 59 °F 30.1 in ESE 5.6 mph 6 mph 57 % 0 in
09:50 74.3 °F 57.2 °F 30.1 in SE 3.1 mph 6 mph 55 % 0 in
09:55 74.8 °F 57.2 °F 30.1 in ESE 4.9 mph 6.3 mph 54 % 0 in
10:00 75.2 °F 57.2 °F 30.1 in ENE 4.3 mph 6.3 mph 52 % 0 in
10:06 75.6 °F 57.2 °F 30.1 in ESE 3.6 mph 6.3 mph 52 % 0 in
10:11 75.9 °F 55.4 °F 30.1 in ENE 4.3 mph 6.3 mph 50 % 0 in
10:16 75.4 °F 55.4 °F 30.1 in ENE 5.6 mph 8.5 mph 48 % 0 in
10:21 75.7 °F 55.4 °F 30.1 in East 5.4 mph 8.5 mph 49 % 0 in
10:26 75.9 °F 55.4 °F 30.1 in NE 5.4 mph 6.5 mph 48 % 0 in
10:31 76.1 °F 55.4 °F 30.1 in ENE 5.6 mph 6.5 mph 48 % 0 in
10:36 77 °F 55.4 °F 30.1 in SE 5.6 mph 5.8 mph 48 % 0 in
10:41 77.5 °F 55.4 °F 30.1 in NE 3.1 mph 5.8 mph 47 % 0 in
10:46 76.8 °F 55.4 °F 30.1 in ENE 5.6 mph 7.4 mph 46 % 0 in
10:51 76.8 °F 55.4 °F 30.1 in NE 7.4 mph 8.7 mph 45 % 0 in
10:56 77.2 °F 55.4 °F 30.1 in East 4 mph 8.7 mph 45 % 0 in
11:01 77 °F 53.6 °F 30.1 in NE 6 mph 8.7 mph 44 % 0 in
11:06 77.5 °F 55.4 °F 30.1 in East 3.8 mph 8.5 mph 44 % 0 in
11:11 77.7 °F 55.4 °F 30.1 in East 1.1 mph 8.5 mph 44 % 0 in
11:16 77.9 °F 55.4 °F 30.1 in ENE 2.9 mph 6.3 mph 44 % 0 in
11:21 77.9 °F 55.4 °F 30.1 in ESE 5.8 mph 8.5 mph 44 % 0 in
11:26 78.4 °F 53.6 °F 30.1 in ESE 5.8 mph 9.4 mph 43 % 0 in
11:31 78.6 °F 55.4 °F 30.1 in East 3.6 mph 9.4 mph 43 % 0 in
11:36 78.8 °F 53.6 °F 30.1 in ESE 4 mph 6.5 mph 42 % 0 in
11:46 79.5 °F 55.4 °F 30.1 in East 6.7 mph 7.4 mph 42 % 0 in
11:51 80.1 °F 55.4 °F 30.1 in East 2.5 mph 7.4 mph 42 % 0 in
11:56 80.1 °F 55.4 °F 30.1 in Calm   6.7 mph 42 % 0 in
12:01 80.2 °F 55.4 °F 30.1 in ESE 4.3 mph 8.5 mph 42 % 0 in
12:02 79.9 °F 55.4 °F 30.1 in ESE 6.5 mph 8.5 mph 41 % 0 in
12:07 80.2 °F 55.4 °F 30.1 in ESE 6.3 mph 8.5 mph 41 % 0 in
12:12 80.2 °F 55.4 °F 30.1 in SE 4.7 mph 7.4 mph 41 % 0 in
12:17 80.6 °F 55.4 °F 30.1 in SSE 7.6 mph 8.1 mph 41 % 0 in
12:22 80.6 °F 55.4 °F 30.1 in South 4 mph 8.1 mph 41 % 0 in
12:27 81 °F 55.4 °F 30.1 in SE 2.5 mph 7.4 mph 41 % 0 in
12:32 81.3 °F 55.4 °F 30.1 in SE 4.3 mph 6.3 mph 41 % 0 in
12:37 81.9 °F 57.2 °F 30.1 in East 3.8 mph 7.4 mph 42 % 0 in
12:42 81.7 °F 55.4 °F 30.1 in NE 4.9 mph 7.4 mph 41 % 0 in
12:47 81.9 °F 55.4 °F 30.1 in SSE 7.2 mph 7.8 mph 41 % 0 in
12:53 82.2 °F 57.2 °F 30.1 in ESE 6 mph 7.8 mph 41 % 0 in
12:58 82 °F 55.4 °F 30.1 in SE 3.8 mph 7.8 mph 40 % 0 in
13:03 82.2 °F 55.4 °F 30.1 in ESE 5.6 mph 7.8 mph 40 % 0 in
13:08 81.9 °F 55.4 °F 30 in SE 6.3 mph 8.7 mph 40 % 0 in
13:13 81.7 °F 55.4 °F 30 in East 6.3 mph 8.9 mph 40 % 0 in
13:18 82 °F 55.4 °F 30 in ENE 6 mph 10.5 mph 40 % 0 in
13:23 81.5 °F 55.4 °F 30 in East 6.3 mph 10.5 mph 39 % 0 in
13:28 81.7 °F 55.4 °F 30 in ESE 2.9 mph 9.8 mph 39 % 0 in
13:33 82 °F 55.4 °F 30 in East 4.9 mph 9.6 mph 40 % 0 in
13:38 82.6 °F 55.4 °F 30 in Calm   9.6 mph 39 % 0 in
13:43 82.6 °F 55.4 °F 30 in ESE 4.9 mph 8.5 mph 39 % 0 in
13:48 82.8 °F 55.4 °F 30 in ENE 4.7 mph 8.5 mph 39 % 0 in
13:53 82.8 °F 55.4 °F 30 in East 6.5 mph 10.1 mph 39 % 0 in
13:58 83.1 °F 55.4 °F 30 in SE 3.1 mph 10.1 mph 39 % 0 in
14:03 83.3 °F 57.2 °F 30 in SSE 5.4 mph 9.8 mph 39 % 0 in
14:08 83.5 °F 57.2 °F 30 in Calm   7.8 mph 39 % 0 in
14:13 83.1 °F 55.4 °F 30 in ENE 3.4 mph 7.4 mph 38 % 0 in
14:18 83.1 °F 55.4 °F 30 in NE 3.8 mph 7.4 mph 38 % 0 in
14:23 83.5 °F 57.2 °F 30 in NE 3.4 mph 8.1 mph 39 % 0 in
14:28 83.5 °F 55.4 °F 30 in East 4 mph 8.1 mph 38 % 0 in
14:33 83.7 °F 55.4 °F 30 in SE 3.6 mph 7.8 mph 38 % 0 in
14:38 83.5 °F 57.2 °F 30 in NNE 8.7 mph 8.7 mph 39 % 0 in
14:44 84.2 °F 57.2 °F 30 in ESE 2.7 mph 8.7 mph 39 % 0 in
14:49 84.2 °F 55.4 °F 30 in Calm   8.1 mph 38 % 0 in
14:54 84 °F 57.2 °F 30 in East 9.8 mph 9.8 mph 39 % 0 in
14:59 84.6 °F 57.2 °F 30 in SSE 4.7 mph 9.8 mph 39 % 0 in
15:04 85.3 °F 57.2 °F 30 in East 1.6 mph 6.5 mph 39 % 0 in
15:09 84.7 °F 55.4 °F 30 in ENE 3.6 mph 8.5 mph 37 % 0 in
15:14 84.7 °F 55.4 °F 30 in SE 2.7 mph 8.5 mph 38 % 0 in
15:19 85.1 °F 57.2 °F 30 in SE 2.9 mph 6.5 mph 38 % 0 in
15:24 85.5 °F 57.2 °F 30 in ENE 3.6 mph 7.4 mph 38 % 0 in
15:29 84.9 °F 55.4 °F 30 in Calm   7.8 mph 37 % 0 in
15:34 84.7 °F 55.4 °F 30 in ENE 4.3 mph 9.2 mph 37 % 0 in
15:39 85.1 °F 55.4 °F 30 in ENE 5.8 mph 9.2 mph 37 % 0 in
15:44 84.9 °F 55.4 °F 30 in East 1.1 mph 7.8 mph 37 % 0 in
15:49 84.9 °F 55.4 °F 30 in SE 7.6 mph 9.8 mph 37 % 0 in
15:54 84.9 °F 55.4 °F 30 in East 5.4 mph 9.8 mph 37 % 0 in
16:04 85.5 °F 55.4 °F 30 in ENE 4 mph 8.7 mph 37 % 0 in
16:09 84.9 °F 55.4 °F 30 in NE 6 mph 8.7 mph 36 % 0 in
16:19 85.1 °F 55.4 °F 30 in Calm   8.7 mph 36 % 0 in
16:24 85.3 °F 55.4 °F 30 in ENE 7.8 mph 7.8 mph 36 % 0 in
16:29 84.9 °F 55.4 °F 30 in East 5.8 mph 8.5 mph 37 % 0 in
16:34 85.5 °F 55.4 °F 30 in ESE 4 mph 8.5 mph 37 % 0 in
16:39 85.3 °F 55.4 °F 30 in SSE 3.6 mph 9.8 mph 36 % 0 in
16:44 85.6 °F 55.4 °F 30 in SSW 0.9 mph 9.8 mph 37 % 0 in
16:49 86 °F 57.2 °F 30 in South 1.6 mph 8.7 mph 37 % 0 in
16:54 86.2 °F 57.2 °F 30 in Calm   8.7 mph 37 % 0 in
16:59 86.4 °F 57.2 °F 30 in Calm   6.3 mph 36 % 0 in
17:00 86.4 °F 57.2 °F 30 in East 5.4 mph 6.3 mph 36 % 0 in
17:05 85.8 °F 55.4 °F 30 in SE 5.6 mph 7.2 mph 36 % 0 in
17:10 85.3 °F 55.4 °F 30 in ESE 5.4 mph 8.1 mph 36 % 0 in
17:15 85.6 °F 55.4 °F 30 in Calm   8.1 mph 36 % 0 in
17:20 85.3 °F 55.4 °F 30 in South 3.8 mph 6.5 mph 36 % 0 in
17:25 85.3 °F 55.4 °F 30 in East 7.8 mph 7.8 mph 37 % 0 in
17:30 85.6 °F 55.4 °F 30 in SSE 2.2 mph 7.8 mph 37 % 0 in
17:35 85.3 °F 55.4 °F 30 in SSE 2.2 mph 7.8 mph 36 % 0 in
17:40 85.3 °F 55.4 °F 30 in Calm   3.6 mph 36 % 0 in
17:45 85.1 °F 55.4 °F 30 in Calm   4.9 mph 36 % 0 in
18:00 32 °F 55.4 °F 0 in East 0.9 mph 0.9 mph 0 % 0 in
18:05 85.3 °F 55.4 °F 29.9 in ESE 6.5 mph 6.5 mph 36 % 0 in
18:10 85.6 °F 55.4 °F 30 in ESE 1.6 mph 6.5 mph 36 % 0 in
18:15 85.5 °F 55.4 °F 30 in East 3.8 mph 6.5 mph 37 % 0 in
18:21 85.8 °F 55.4 °F 30 in East 3.6 mph 5.6 mph 37 % 0 in
18:26 85.8 °F 55.4 °F 30 in ESE 4.3 mph 5.6 mph 37 % 0 in
18:31 85.5 °F 55.4 °F 30 in NE 5.6 mph 6 mph 36 % 0 in
18:36 85.1 °F 55.4 °F 30 in East 1.1 mph 6 mph 36 % 0 in
18:41 84.9 °F 55.4 °F 30 in ESE 6.5 mph 7.4 mph 36 % 0 in
18:46 85.1 °F 55.4 °F 30 in SE 1.6 mph 7.4 mph 37 % 0 in
18:51 85.3 °F 55.4 °F 30 in East 3.8 mph 5.4 mph 36 % 0 in
18:56 85.3 °F 55.4 °F 30 in ENE 3.4 mph 5.4 mph 36 % 0 in
19:01 84.9 °F 55.4 °F 30 in Calm   5.6 mph 36 % 0 in
19:06 85.1 °F 55.4 °F 30 in ENE 4.3 mph 5.6 mph 36 % 0 in
19:11 84.7 °F 55.4 °F 29.9 in ESE 5.8 mph 5.8 mph 37 % 0 in
19:16 84.6 °F 55.4 °F 29.9 in ESE 3.4 mph 5.8 mph 36 % 0 in
19:21 84.4 °F 55.4 °F 29.9 in East 5.8 mph 6.5 mph 37 % 0 in
19:26 83.8 °F 55.4 °F 29.9 in ENE 6.3 mph 6.5 mph 37 % 0 in
19:31 83.7 °F 55.4 °F 29.9 in East 5.8 mph 6.3 mph 38 % 0 in
19:36 83.3 °F 55.4 °F 30 in ENE 3.1 mph 7.4 mph 37 % 0 in
19:41 82.9 °F 55.4 °F 30 in NE 2.9 mph 7.4 mph 38 % 0 in
19:46 82.8 °F 55.4 °F 30 in East 2.9 mph 7.4 mph 38 % 0 in
19:51 82.6 °F 55.4 °F 29.9 in Calm   7.2 mph 39 % 0 in
19:57 82.2 °F 55.4 °F 29.9 in East 4.5 mph 6.3 mph 39 % 0 in
20:02 82 °F 55.4 °F 29.9 in East 2.9 mph 6.3 mph 39 % 0 in
20:07 81.7 °F 55.4 °F 29.9 in East 5.6 mph 6.3 mph 39 % 0 in
20:12 81.1 °F 55.4 °F 29.9 in ESE 3.1 mph 6.5 mph 39 % 0 in
20:17 80.8 °F 55.4 °F 29.9 in East 5.4 mph 6.5 mph 40 % 0 in
20:22 80.4 °F 55.4 °F 29.9 in East 4.9 mph 6.3 mph 40 % 0 in
20:27 80.1 °F 53.6 °F 29.9 in Calm   5.8 mph 40 % 0 in
20:32 79.3 °F 53.6 °F 29.9 in Calm   4.9 mph 41 % 0 in
20:37 78.8 °F 53.6 °F 29.9 in ENE 3.4 mph 4.7 mph 41 % 0 in
20:40 78.6 °F 53.6 °F 29.9 in Calm   4.7 mph 42 % 0 in
20:45 78.3 °F 53.6 °F 29.9 in Calm   4.3 mph 42 % 0 in
20:50 77.9 °F 53.6 °F 29.9 in Calm   3.1 mph 42 % 0 in
20:52 77.7 °F 53.6 °F 29.9 in East 1.1 mph 3.1 mph 42 % 0 in
20:57 77.2 °F 53.6 °F 29.9 in Calm   4.3 mph 43 % 0 in
21:02 76.6 °F 53.6 °F 29.9 in Calm   4.3 mph 44 % 0 in
21:07 76.3 °F 53.6 °F 29.9 in Calm   3.1 mph 44 % 0 in
21:12 75.7 °F 53.6 °F 29.9 in Calm   1.1 mph 45 % 0 in
21:17 75.2 °F 53.6 °F 29.9 in Calm   1.1 mph 46 % 0 in
21:22 74.8 °F 53.6 °F 30 in Calm     47 % 0 in
21:27 74.5 °F 53.6 °F 30 in Calm     47 % 0 in
21:32 73.9 °F 53.6 °F 30 in Calm     48 % 0 in
21:37 73.6 °F 53.6 °F 30 in Calm     49 % 0 in
21:42 73.2 °F 53.6 °F 30 in Calm     49 % 0 in
21:47 72.9 °F 53.6 °F 30 in Calm     50 % 0 in
21:52 72.5 °F 53.6 °F 30 in Calm     51 % 0 in
21:57 72.3 °F 53.6 °F 30 in Calm     51 % 0 in
22:02 72 °F 53.6 °F 30 in Calm   1.3 mph 52 % 0 in
22:07 71.6 °F 53.6 °F 30 in Calm   1.3 mph 53 % 0 in
22:08 71.6 °F 53.6 °F 30 in ESE 2.7 mph 2.7 mph 53 % 0 in
22:13 71.2 °F 53.6 °F 30 in Calm   2.9 mph 53 % 0 in
22:18 70.9 °F 53.6 °F 30 in Calm   2.9 mph 54 % 0 in
22:23 70.5 °F 53.6 °F 30 in Calm   1.3 mph 54 % 0 in
22:28 70.2 °F 53.6 °F 30 in Calm   2 mph 55 % 0 in
22:33 69.6 °F 53.6 °F 30 in Calm   2 mph 56 % 0 in
22:38 69.4 °F 53.6 °F 30 in Calm     57 % 0 in
22:43 69.3 °F 53.6 °F 30 in Calm     57 % 0 in
22:48 69.1 °F 53.6 °F 30 in Calm   0.9 mph 58 % 0 in
22:53 68.7 °F 53.6 °F 30 in Calm   1.3 mph 58 % 0 in
22:58 68.4 °F 53.6 °F 30 in Calm   1.3 mph 59 % 0 in
23:03 68 °F 53.6 °F 30 in Calm     59 % 0 in
23:08 67.8 °F 53.6 °F 30 in Calm     60 % 0 in
23:13 67.5 °F 53.6 °F 30 in Calm   2 mph 61 % 0 in
23:18 67.1 °F 53.6 °F 30 in Calm   2 mph 61 % 0 in
23:23 66.9 °F 53.6 °F 30 in Calm     62 % 0 in
23:28 66.4 °F 53.6 °F 30 in Calm     63 % 0 in
23:33 66 °F 53.6 °F 30 in Calm     64 % 0 in
23:38 65.8 °F 53.6 °F 30 in Calm     64 % 0 in
23:43 65.7 °F 53.6 °F 30 in Calm     65 % 0 in
23:48 65.3 °F 53.6 °F 30 in Calm     65 % 0 in
23:53 65.1 °F 53.6 °F 30 in Calm     66 % 0 in
23:58 64.6 °F 53.6 °F 30 in Calm     67 % 0 in
Le Gheer Warneton
Courtoisie de Weather Underground - 2.25 mb

Mise a jour : 17-12-17 07:20:13
Généré par Cumulus 1.9.4 (1099)